Time,TemperatureF,DewpointF,PressureIn,WindDirection,WindDirectionDegrees,WindSpeedMPH,WindSpeedGustMPH,Humidity,HourlyPrecipIn,Conditions,Clouds,dailyrainin,SoftwareType,DateUTC
2013-05-05 06:10:00,51.0,37.0,-100.00,North,10,5.0,7.0,58,-99.99,,,-99.99,,2013-05-05 13:10:00,
2013-05-05 07:01:00,51.0,37.0,-100.00,North,10,5.0,7.0,58,-99.99,,,-99.99,,2013-05-05 14:01:00,
2013-05-05 08:01:00,52.0,36.0,-100.00,NNE,25,7.0,14.0,54,-99.99,,,-99.99,,2013-05-05 15:01:00,
2013-05-05 08:10:00,55.0,37.0,-100.00,NNE,20,6.0,12.0,50,-99.99,,,-99.99,,2013-05-05 15:10:00,
2013-05-05 09:00:00,60.0,40.0,-100.00,SSE,150,7.0,13.0,47,-99.99,,,-99.99,,2013-05-05 16:00:00,
2013-05-05 09:03:00,55.0,37.0,-100.00,NNE,20,6.0,12.0,50,-99.99,,,-99.99,,2013-05-05 16:03:00,
2013-05-05 10:10:00,65.0,38.0,-100.00,NNE,15,10.0,15.0,36,-99.99,,,-99.99,,2013-05-05 17:10:00,
2013-05-05 11:01:00,65.0,38.0,-100.00,NNE,15,10.0,15.0,36,-99.99,,,-99.99,,2013-05-05 18:01:00,
2013-05-05 11:20:00,69.0,40.0,-100.00,North,5,8.0,14.0,34,-99.99,,,-99.99,,2013-05-05 18:20:00,
2013-05-05 12:01:00,69.0,40.0,-100.00,North,5,8.0,14.0,34,-99.99,,,-99.99,,2013-05-05 19:01:00,
2013-05-05 12:10:00,74.0,36.0,-100.00,East,80,7.0,12.0,25,-99.99,,,-99.99,,2013-05-05 19:10:00,
2013-05-05 12:11:00,69.0,40.0,-100.00,North,5,8.0,14.0,34,-99.99,,,-99.99,,2013-05-05 19:11:00,
2013-05-05 13:01:00,74.0,36.0,-100.00,East,80,7.0,12.0,25,-99.99,,,-99.99,,2013-05-05 20:01:00,
2013-05-05 14:01:00,79.0,26.0,-100.00,South,185,1.0,14.0,14,-99.99,,,-99.99,,2013-05-05 21:01:00,
2013-05-05 14:10:00,80.0,25.0,-100.00,NE,40,6.0,13.0,13,-99.99,,,-99.99,,2013-05-05 21:10:00,
2013-05-05 14:11:00,79.0,26.0,-100.00,South,185,1.0,14.0,14,-99.99,,,-99.99,,2013-05-05 21:11:00,
2013-05-05 15:02:00,80.0,25.0,-100.00,NE,40,6.0,13.0,13,-99.99,,,-99.99,,2013-05-05 22:02:00,
2013-05-05 16:02:00,82.0,26.0,-100.00,SSE,150,10.0,17.0,12,-99.99,,,-99.99,,2013-05-05 23:02:00,
2013-05-05 16:11:00,82.0,26.0,-100.00,SSE,150,10.0,17.0,12,-99.99,,,-99.99,,2013-05-05 23:11:00,
2013-05-05 17:01:00,82.0,26.0,-100.00,NNE,20,3.0,13.0,12,-99.99,,,-99.99,,2013-05-06 00:01:00,
2013-05-05 18:01:00,84.0,25.0,-100.00,NNE,25,3.0,12.0,11,-99.99,,,-99.99,,2013-05-06 01:01:00,
2013-05-05 18:11:00,84.0,25.0,-100.00,NNE,25,3.0,12.0,11,-99.99,,,-99.99,,2013-05-06 01:11:00,
2013-05-05 19:01:00,84.0,24.0,-100.00,East,90,3.0,7.0,11,-99.99,,,-99.99,,2013-05-06 02:01:00,
2013-05-05 20:01:00,80.0,27.0,-100.00,SW,220,7.0,13.0,14,-99.99,,,-99.99,,2013-05-06 03:01:00,
2013-05-05 20:11:00,80.0,27.0,-100.00,SW,220,7.0,13.0,14,-99.99,,,-99.99,,2013-05-06 03:11:00,
2013-05-05 21:02:00,71.0,33.0,-100.00,North,360,1.0,3.0,24,-99.99,,,-99.99,,2013-05-06 04:02:00,
2013-05-05 22:02:00,68.0,31.0,-100.00,ENE,65,1.0,3.0,25,-99.99,,,-99.99,,2013-05-06 05:02:00,
2013-05-05 22:12:00,68.0,31.0,-100.00,ENE,65,1.0,3.0,25,-99.99,,,-99.99,,2013-05-06 05:12:00,
2013-05-05 23:02:00,61.0,36.0,-100.00,SW,235,1.0,2.0,39,-99.99,,,-99.99,,2013-05-06 06:02:00,
2013-05-05 23:10:00,58.0,35.0,-100.00,WSW,240,1.0,3.0,41,-99.99,,,-99.99,,2013-05-06 06:10:00,